sat.trackr.live / text

‹ back to catalog

STARLINK-30856

NORAD 58725 · 2024-002W

PAYLOAD ACTIVE UNKNOWN

§ Identity

Operator
Country
US
Launch date
2024-01-03
Launch site
AFWTR
Launch vehicle
Mass (kg)
RCS (m²)

Purposes: comms

External: N2YO · Heavens-Above · Gunter

§ Orbital elements

Epoch: 2026-05-25T05:19:55.182144Z

Period
94.11 min
Inclination
53.1610°
Eccentricity
0.0000908
Mean motion
15.30193280 rev/d
Perigee alt
474.6 km
Apogee alt
475.9 km
Semi-major
6,853.4 km
B*
3.9544e-5
RAAN
234.3864°
Arg perigee
105.1552°
Mean anomaly
254.9549°
Rev number
13,373

§ Raw data

STARLINK-308561 58725U 24002W   26145.22216646  .00000812  00000+0  39544-4 0  99912 58725  53.1610 234.3864 0000908 105.1552 254.9549 15.30193280133738

JSON: /api/v1/satellites/58725 · /tle

For live sub-satellite position, see the globe view (requires WebGL).

§ Visibility from observer

Set your observer location to see the next 7 days of passes ≥ 10°. The values pass through the URL so the page stays shareable.

No JS? Fill the form by hand. The geolocation button needs JavaScript.